Location: Antioch Baptist Church
(32.6696°N, 85.7327°W)
Time: 23:22:47
(UTC+00:00)

Resurs 01 Rocket - Pass Details

Date: 14 July 2020
Orbit: 635 x 644 km, 98.0° (Epoch: 12 August)

Event Time Altitude Azimuth Distance (km) Brightness Sun altitude
Exits shadow 01:31:17 10° 119° (ESE) 2,027 3.5 -8.0°
Reaches altitude 10° 01:31:19 10° 118° (ESE) 2,018 3.5 -8.0°
Maximum altitude 01:34:35 21° 70° (ENE) 1,434 3.1 -8.6°
Drops below altitude 10° 01:37:52 10° 21° (NNE) 2,025 4.4 -9.2°
Sets 01:40:30 0° 6° (N) 2,936 5.4 -9.6°
